Regional Weather Roundup
Issued by NWS Green Bay, WI

Home | Current Version | Previous Version | Graphics & Text | Print | Product List | Glossary Off
Versions: 1 2 3 4 5 6 7 8 9 10 11 12 13 14 15 16 17 18 19 20 21 22 23 24 25 26 27 28 29 30 31 32 33 34 35 36 37 38 39 40 41 42 43 44 45 46 47 48 49 50

288
ASUS43 KGRB 180400
RWRGRB

NORTH-CENTRAL AND NORTHEAST WISCONSIN REGIONAL WEATHER ROUNDUP
NATIONAL WEATHER SERVICE GREEN BAY WI
1000 PM CST SAT FEB 17 2018

WIZ005-009-010>012-018-019-180500-
NORTH CENTRAL WISCONSIN

CITY           SKY/WX    TMP DP  RH WIND       PRES   REMARKS
IRONWOOD       FAIR      21  10  62 W15       29.93R WCI   8
MANITOWISH WTR NOT AVBL
ARBOR VITAE    NOT AVBL
EAGLE RIVER    FAIR      21   9  61 W5        29.88R
LAND O LAKES   FAIR      22  10  60 W5        29.90R
RHINELANDER    FAIR      21  18  88 SW8       29.90R
PHILLIPS       FAIR      23   9  56 W8        29.93R
ANTIGO         NOT AVBL
TOMAHAWK       NOT AVBL
MERRILL        FAIR      19  18  95 W7        29.96R WCI  10
$$

WIZ013-073-180500-
NORTHEAST WISCONSIN

CITY           SKY/WX    TMP DP  RH WIND       PRES   REMARKS
IRON MOUNTAIN  MOCLDY    23  19  85 CALM      29.88R
MARINETTE      FAIR      24  20  84 W7        29.96R
$$

WIZ017-030-035>037-045-180500-
CENTRAL WISCONSIN

CITY           SKY/WX    TMP DP  RH WIND       PRES   REMARKS
MEDFORD        NOT AVBL
WAUSAU         FAIR      23  19  85 W13       29.96R
MOSINEE        PTCLDY    19  19 100 SW9       29.99R WCI   9
MARSHFIELD     FAIR      21  19  92 W9        29.98R
WISC RAPIDS    FAIR      22  17  81 W6        30.02R
STEVENS POINT  NOT AVBL
WAUPACA        FAIR      24  19  82 SW6       30.01R
SHAWANO        FAIR      26  21  81 SW6       29.98R
CLINTONVILLE   FAIR      25  20  79 W8        29.99R
WAUTOMA        FAIR      23  20  88 SW6       30.03R
$$

WIZ038-039-048-051-180500-
FOX VALLEY

CITY           SKY/WX    TMP DP  RH WIND       PRES   REMARKS
NWS GREEN BAY  FAIR      24  18  77 SW6       30.00R
APPLETON       CLEAR     25  18  74 SW8       29.99R
OSHKOSH        FAIR      25  20  81 SW5       30.02R
FOND DU LAC    FAIR      24  18  77 SW6       30.04R
$$

WIZ022-050-052-180500-
EAST CENTRAL WISCONSIN

CITY           SKY/WX    TMP DP  RH WIND       PRES   REMARKS
EPHRAIM        FAIR      23  19  83 W10G17    29.93R
WASHINGTON ISL FLURRIES  21  18  87 W9        29.94R
STURGEON BAY   FAIR      25  20  81 W12       29.97R
MANITOWOC      FAIR      26  21  81 W9        30.01R
SHEBOYGAN      FAIR      26  21  81 W12       30.02R
$$

LMZ563-521-522-541>543-180500-
LAKESHORE

STATION/POSITION TIME  TEMP    WIND        PRES    VSBY  WAVE
                       AIR SEA DIR/SP/G                  HT/PER
                 (UTC) (F)     (DEG/KT/KT) (MB)    (MI)  (FT/S)
SHEBOYGAN LKSHOR 0300   28     270/ 17/ 20 1017.0R
KEWAUNEE LKSHORE 0330   27     270/  6/  9 1014.4R
NORTHPORT PIER   0340   25                 1013.5R
MENOMINEE LKSHOR 0324   25     220/ 11/ 13 1013.9
$$




USA.gov is the U.S. government's official web portal to all federal, state and local government web resources and services.